Weather History for Yellowstone, WY

Change the Weather History Date:

Friday, June 14, 2013

  Actual Average Record
Temperature  
Mean Temperature 39 °F 48 °F  
Max Temperature 50 °F 62 °F 67 °F (2003)
Min Temperature 28 °F 34 °F 27 °F (2012)
Degree Days  
Heating Degree Days 26 17  
Month to date heating degree days 217 264  
Since 1 June heating degree days 217 264  
Since 1 July heating degree days 11416 11292  
Cooling Degree Days 0 0  
Month to date cooling degree days 0 0  
Year to date cooling degree days 0 0  
Since 1 June cooling degree days 0 0  
Moisture  
Dew Point 29 °F    
Average Humidity 69    
Maximum Humidity 100    
Minimum Humidity 37    
Precipitation  
Precipitation 0.00 in 0.07 in 0.11 in (2006)
Month to date precipitation 0.25 1.07  
Year to date precipitation 9.24 10.15  
Sea Level Pressure  
Sea Level Pressure 30.13 in    
Wind  
Wind Speed 5 mph (West)    
Max Wind Speed 21 mph    
Max Gust Speed 35 mph    
T = Trace of Precipitation, MM = Missing Value Source: NWS Daily Summary

Daily Weather History Graph

Daily Weather History Graph

Search for Another Location

Airport:

Trip Planner

Search our weather history database for the weather conditions in past years. The results will help you decide how hot, cold, wet, or windy it might be!

Date:

Astronomy

Jun. 14, 2013 Rise Set
Actual Time 5:36 AM MDT 9:08 PM MDT
Civil Twilight 4:59 AM MDT 9:45 PM MDT
Nautical Twilight 4:10 AM MDT 10:33 PM MDT
Astronomical Twilight 3:07 AM MDT 11:36 PM MDT
Moon 11:26 AM MDT (6/14) 12:04 AM MDT (6/14)
Length of Visible Light 16h 45m
Length of Day
15h 32m
Waxing Crescent, 31% of the Moon is Illuminated
Jun 14
Waxing Crescent
Jun 16
First Quarter
Jun 23
Full
Jun 29
Last Quarter
Jul 8
New

Hourly Weather History & Observations

Time (MDT) Temp. Windchill Dew Point Humidity Pressure Visibility Wind Dir Wind Speed Gust Speed Precip Events Conditions
12:56 AM 37.0 °F - 34.0 °F 89% 30.01 in - Calm Calm - N/A   Unknown
1:56 AM 33.1 °F - 32.0 °F 96% 30.03 in - Calm Calm - N/A   Unknown
2:56 AM 30.9 °F - 30.9 °F 100% 30.01 in - Calm Calm - N/A   Unknown
3:56 AM 30.9 °F - 30.0 °F 96% 29.99 in - Calm Calm - N/A   Unknown
4:56 AM 33.1 °F 30.0 °F 32.0 °F 96% 29.98 in - Variable 3.5 mph - N/A   Unknown
5:56 AM 34.0 °F 31.0 °F 33.1 °F 96% 29.99 in - Variable 3.5 mph - N/A   Unknown
6:56 AM 36.0 °F 30.3 °F 28.9 °F 76% 30.01 in - Variable 6.9 mph 16.1 mph N/A   Unknown
7:56 AM 36.0 °F 30.3 °F 26.1 °F 67% 30.09 in - Variable 6.9 mph 20.7 mph N/A   Unknown
8:56 AM 37.0 °F 31.6 °F 24.1 °F 59% 30.11 in - Variable 6.9 mph 17.3 mph N/A   Unknown
9:56 AM 37.9 °F 33.5 °F 24.1 °F 57% 30.16 in - Variable 5.8 mph - N/A   Unknown
10:56 AM 42.1 °F 37.7 °F 26.1 °F 53% 30.14 in - Variable 6.9 mph - N/A   Unknown
11:56 AM 43.0 °F 37.7 °F 26.1 °F 51% 30.13 in - West 9.2 mph 23.0 mph N/A   Unknown
12:56 PM 44.1 °F 41.5 °F 24.1 °F 45% 30.14 in - Variable 4.6 mph 24.2 mph N/A   Unknown
1:56 PM 46.0 °F 41.9 °F 25.0 °F 44% 30.16 in - SW 8.1 mph - N/A   Unknown
2:56 PM 46.0 °F 41.9 °F 25.0 °F 44% 30.16 in - WSW 8.1 mph - N/A   Unknown
3:56 PM 46.0 °F 42.5 °F 21.9 °F 39% 30.16 in - Variable 6.9 mph - N/A   Unknown
4:56 PM 46.9 °F - 30.9 °F 54% 30.16 in - West 8.1 mph 16.1 mph N/A   Unknown
5:56 PM 46.0 °F 42.5 °F 30.0 °F 54% 30.16 in - WNW 6.9 mph - N/A   Unknown
6:56 PM 39.0 °F 34.0 °F 32.0 °F 76% 30.20 in - Variable 6.9 mph - N/A   Unknown
7:56 PM 37.0 °F 31.0 °F 32.0 °F 82% 30.22 in - WNW 8.1 mph 18.4 mph N/A   Unknown
8:56 PM 37.9 °F - 33.1 °F 83% 30.22 in - Calm Calm - N/A   Unknown
9:56 PM 35.1 °F - 32.0 °F 89% 30.26 in - Calm Calm - N/A   Unknown
10:56 PM 30.9 °F 27.5 °F 28.9 °F 92% 30.27 in - NW 3.5 mph - N/A   Unknown
11:56 PM 28.9 °F - 28.0 °F 96% 30.27 in - Calm Calm - N/A   Unknown